Regional Weather Roundup
Issued by NWS Sioux Falls, SD

Home | Current Version | Previous Version | Graphics & Text | Print | Product List | Glossary On
Versions: 1 2 3 4 5 6 7 8 9 10 11 12 13 14 15 16 17 18 19 20 21 22 23 24 25 26 27 28 29 30 31 32 33 34 35 36 37 38 39 40 41 42 43 44 45 46 47 48 49 50
000
ASUS43 KFSD 260710
RWRFSD

WEATHER ROUNDUP FOR SE SOUTH DAKOTA/SW MINNESOTA/NW IOWA
NATIONAL WEATHER SERVICE SIOUX FALLS SD
200 AM CDT FRI AUG 26 2016

NOTE: "FAIR" INDICATES FEW OR NO CLOUDS BELOW 12,000 FEET WITH NO
SIGNIFICANT WEATHER AND OR OBSTRUCTIONS TO VISIBILITY.


SDZ038>040-050-052>070-260800-
SOUTHEAST SOUTH DAKOTA

CITY           SKY/WX    TMP DP  RH WIND       PRES   REMARKS
BROOKINGS      FAIR      52  51  97 CALM      30.18S
CHAMBERLAIN    FAIR      54  49  86 CALM      30.19F
HURON          FAIR      52  48  86 W3        30.18S
MADISON        FAIR      50  50 100 CALM      30.19S
MITCHELL       MOCLDY    53  51  93 CALM      30.18F
SIOUX FALLS    FAIR      54  52  93 CALM      30.18F
WINNER         PTSUNNY   56  48  74 S3        30.20F
YANKTON        FAIR      55  48  76 NW5       30.16F
$$

MNZ071-072-080-081-089-090-097-098-260800-
SOUTHWEST MINNESOTA

CITY           SKY/WX    TMP DP  RH WIND       PRES   REMARKS
FAIRMONT       FAIR      55  53  93 CALM      30.18R
JACKSON        FAIR      54  52  94 CALM      30.19S FOG
LUVERNE        FAIR      50  46  87 CALM      30.19F
MARSHALL       FAIR      53  51  93 CALM      30.18F
MONTEVIDEO     FAIR      54  52  94 W5        30.18F
REDWOOD FALLS  FAIR      55  51  86 W5        30.16F
TRACY          FAIR      57  54  89 SW3       30.18F
WINDOM         FAIR      54  52  94 CALM      30.18F
WORTHINGTON    FAIR      53  52  96 CALM      30.19F
$$

IAZ001>003-012>014-020>022-031-032-NEZ013-014-SDZ071-260800-
NORTHWEST IOWA

CITY           SKY/WX    TMP DP  RH WIND       PRES   REMARKS
ESTHERVILLE    FAIR      52  52 100 NW5       30.18R
SIOUX CITY     FAIR      59  56  89 NW5       30.17S
SPENCER        FAIR      54  53  97 CALM      30.18S
$$

ABBREVIATIONS USED IN REMARKS
   TC - TEMPERATURE IN CELSIUS
  WCI - WIND CHILL INDEX
   HX - HEAT INDEX
  VSB - VISIBILITY





USA.gov is the U.S. government's official web portal to all federal, state and local government web resources and services.